User: anonymous   Login
Location: Dehesa de la Cepeda
(40.6574°N, 4.3013°W)
Time: 18:16:10
(UTC+00:00)
Language:

Envisat - Orbit

View from above orbital plane
View from above orbital plane
View from above satellite
View from above satellite

Ground track
Ground track

The orbit data is extracted from the following two-line orbital elements,

1 27386U 02009A   21210.95927295  .00000022  00000-0  20741-4 0  9993
2 27386  98.1502 202.8495 0001377  88.5565 325.5452 14.38035349 17181
Epoch (UTC): 29 July 2021 23:01:21
Eccentricity: 0.0001377
inclination: 98.1502°
perigee height: 764 km
apogee height: 766 km
right ascension of ascending node: 202.8495°
argument of perigee: 88.5565°
revolutions per day: 14.38035349
mean anomaly at epoch: 325.5452°
orbit number at epoch: 1718

The dashed part of the orbit path shows where the satellite is in the earth's shadow,  

DLR